Location: Bailleul
(50.3375°N, 2.8513°E)
Time: 11:01:34
(UTC+00:00)

Cosmos 2016 Rocket - Pass Details

Date: 25 October 2021
Orbit: 946 x 1000 km, 83.0° (Epoch: 01 December)

Event Time Altitude Azimuth Distance (km) Brightness Sun altitude
Rises 04:17:37 0° 1° (N) 3,632 7.1 -21.3°
Reaches altitude 10° 04:22:25 10° 34° (NE) 2,679 6.8 -20.5°
Maximum altitude 04:24:15 11° 52° (NE) 2,582 7.0 -20.2°
Drops below altitude 10° 04:26:04 10° 70° (ENE) 2,677 7.4 -19.9°
Sets 04:30:50 0° 103° (ESE) 3,622 8.4 -19.2°
